{"data":{"norad_id":56080,"intl_designator":"2023-043AL","name":"ONEWEB-0651","alt_names":[],"object_type":"PAYLOAD","status":"ACTIVE","operator":null,"country":"UK","launch_date":"2023-03-26","launch_site_code":"SRILR","launch_vehicle":null,"mission":null,"orbit_class":"UNKNOWN","rcs_meters":null,"size_class":null,"mass_kg":null,"dimensions":null,"purposes":["comms"],"wikipedia_slug":null,"has_3d_model":false,"image_url":null,"decayed_at":null,"tle_current":{"epoch":"2026-05-25T03:37:31.939968Z","epoch_age_seconds":62050,"freshness":"FRESH","line1":"1 56080U 23043AL  26145.15106412  .00000176  00000+0  43243-3 0  9991","line2":"2 56080  87.8987 263.8114 0002164  99.7358 260.4017 13.15547655154593","mean_motion":13.15547655,"eccentricity":0.0002164,"inclination_deg":87.8987,"raan_deg":263.8114,"arg_perigee_deg":99.7358,"mean_anomaly_deg":260.4017,"bstar":0.00043243,"rev_number":15459,"period_min":109.46011682108,"perigee_km":1200.1339125436,"apogee_km":1203.4144981133,"semimajor_km":7579.9112053285,"source":"CELESTRAK","updated_at":"2026-05-25T13:38:22.707566Z"}}}